This is the latest recevied weather packets stored in our database for station/object KO4APQ. If no packets are shown the sender has not sent any weather packets the latest 10 day(s).
| Time | Temp. | Humidity | Pressure | Rain* | Wind** | Luminosity | Snow |
|---|---|---|---|---|---|---|---|
| 1777642583 | 13.89° C | 64% | 1015.7 hPa | 0 mm | - | 191 W/m² | - |
| 1777642279 | 13.89° C | 63% | 1015.9 hPa | 0 mm | - | 175 W/m² | - |
| 1777641976 | 13.89° C | 67% | 1015.8 hPa | 0 mm | - | 172 W/m² | - |
| 1777641672 | 13.89° C | 67% | 1015.7 hPa | 0 mm | - | 181 W/m² | - |
| 1777641367 | 13.89° C | 70% | 1015.7 hPa | 0 mm | - | 183 W/m² | - |
| 1777641063 | 13.89° C | 66% | 1015.7 hPa | 0 mm | - | 167 W/m² | - |
| 1777640759 | 13.89° C | 71% | 1015.6 hPa | 0 mm | - | 173 W/m² | - |
| 1777640153 | 13.33° C | 71% | 1015.6 hPa | 0 mm | - | 183 W/m² | - |
| 1777639244 | 13.33° C | 70% | 1015.5 hPa | 0 mm | - | 121 W/m² | - |
| 1777638636 | 13.33° C | 69% | 1015.5 hPa | 0 mm | - | 106 W/m² | - |
| 1777638333 | 13.33° C | 69% | 1015.2 hPa | 0 mm | - | 111 W/m² | - |
| 1777638028 | 13.33° C | 69% | 1015.1 hPa | 0 mm | - | 110 W/m² | - |
| 1777637119 | 12.78° C | 76% | 1015.1 hPa | 0 mm | - | 144 W/m² | - |
| 1777635599 | 12.22° C | 79% | 1015 hPa | 0 mm | - | 50 W/m² | - |
| 1777635295 | 11.67° C | 83% | 1014.8 hPa | 0 mm | - | 55 W/m² | - |
| 1777634992 | 11.67° C | 89% | 1014.7 hPa | 0 mm | - | 60 W/m² | - |
| 1777634689 | 11.67° C | 90% | 1014.9 hPa | 0 mm | - | 50 W/m² | - |
| 1777634387 | 11.67° C | 90% | 1014.7 hPa | 0 mm | - | 35 W/m² | - |
| 1777634083 | 11.11° C | 90% | 1014.8 hPa | 0 mm | - | 27 W/m² | - |
| 1777633779 | 11.11° C | 89% | 1014.8 hPa | 0 mm | - | 26 W/m² | - |
| 1777633477 | 11.11° C | 88% | 1014.6 hPa | 0 mm | - | 16 W/m² | - |
| 1777633175 | 11.11° C | 88% | 1014.7 hPa | 0 mm | - | 11 W/m² | - |
| 1777632872 | 11.11° C | 89% | 1014.4 hPa | 0 mm | - | 8 W/m² | - |
| 1777632567 | 11.11° C | 88% | 1014.5 hPa | 0 mm | - | 5 W/m² | - |
| 1777631962 | 11.67° C | 87% | 1014.4 hPa | 0 mm | - | 1 W/m² | - |
* Rain latest hour (hover to see other rain measurements)
** Current wind speed in m/s (hover to see current wind gust speed)